Location: Campillo
(40.8621°N, 4.2488°W)
Time: 12:17:02
(UTC+00:00)

ARIANE 5 R/B - Pass Details

Date: 11 May 2021
Orbit: 620 x 656 km, 98.1° (Epoch: 09 June)

Event Time Altitude Azimuth Distance (km) Brightness Sun altitude
Exits shadow 22:29:54 27° 255° (WSW) 1,211 4.1 -26.3°
Maximum altitude 22:30:17 27° 264° (W) 1,200 4.2 -26.3°
Drops below altitude 10° 22:33:59 10° 323° (NW) 1,994 6.1 -26.7°
Sets 22:36:28 0° 335° (NNW) 2,905 7.3 -26.9°
